Location: Karcze
(52.0945°N, 22.4786°E)
Time: 23:03:10
(UTC+00:00)

A-11 Canister half - Pass Details

Date: 04 August 2021
Orbit: 1515 x 1685 km, 47.2° (Epoch: 19 September)

Event Time Altitude Azimuth Distance (km) Brightness Sun altitude
Rises 15:43:28 0° 240° (WSW) 4,780 12.6 21.4°
Reaches altitude 10° 15:46:34 10° 236° (WSW) 3,819 12.1 21.0°
Maximum altitude 15:56:03 58° 161° (SSE) 1,868 9.6 19.5°
Drops below altitude 10° 16:05:51 10° 86° (E) 3,938 10.6 18.0°
Sets 16:09:05 0° 83° (E) 4,936 11.1 17.5°
